Probability
0 0 0 0 0 0 0 1 2 3 2 2 2 1 0 0 0 0 0 0 0 0 0 0 0 0 0 0 0 0 0 0 0 0 0 0 0 0 0 0 0 0 0
0 0 0 0 0 0 0 0 1 2 1 1 1 0 0 0 0 0 0 0 0 0 0 0 0 0 0 0 0 0 0 0 0 0 0 0 0 0 0 0 0 0 0
0 0 0 1 1 0 0 0 0 0 0 0 0 0 0 0 0 0 0 0 0 0 0 0 0 0 0 0 0 0 0 0 0 0 0 0 0 0 0 0 0 0 0
1 1 3 5 4 2 1 1 0 0 0 0 0 0 0 0 0 0 0 0 0 0 0 0 0 0 0 0 0 0 0 0 0 0 0 0 0 0 0 0 0 0 0
2 3 7 13 12 6 3 2 1 0 0 0 0 0 0 0 0 0 0 0 0 0 0 0 0 0 0 0 0 0 0 0 0 0 0 0 0 0 0 0 0 0 0
6 8 14 21 20 13 8 6 4 2 0 0 0 0 0 0 0 0 0 0 0 0 0 0 0 0 0 0 0 0 0 0 0 0 0 0 0 0 0 0 0 0 0
12 14 20 25 24 19 14 9 6 3 1 0 0 0 0 0 0 0 0 0 0 0 0 0 0 0 0 0 0 0 0 0 0 0 0 0 0 0 0 0 0 0 0
21 21 24 26 24 21 17 12 7 4 1 0 0 0 0 0 0 0 0 0 0 0 0 0 0 0 0 0 0 0 0 0 0 0 0 0 0 0 0 0 0 0 0
30 29 29 28 26 21 17 12 8 4 2 1 0 0 0 0 0 0 0 0 0 0 0 0 0 0 0 0 0 0 0 0 0 0 0 0 0 0 0 0 0 0 0
36 35 35 33 29 23 16 12 7 4 2 1 0 0 0 0 0 0 0 0 0 0 0 0 0 0 0 0 0 0 0 0 0 0 0 0 0 0 0 0 0 0 0
37 36 36 35 30 24 18 14 10 6 3 1 0 0 0 0 0 0 0 0 0 0 0 0 0 0 0 0 0 0 0 0 0 0 0 0 0 0 0 0 0 0 0
38 36 35 35 31 26 21 17 14 11 7 3 1 0 0 0 0 0 0 0 0 0 0 0 1 0 0 0 0 0 0 0 0 0 0 0 0 0 0 0 0 0 0
40 38 36 34 32 27 22 19 18 15 12 7 2 0 0 0 0 0 0 0 0 0 0 0 0 0 0 0 0 0 0 0 0 0 0 0 0 0 0 0 0 0 0
42 40 37 32 27 24 21 19 17 16 14 8 2 0 0 0 0 0 0 0 0 0 0 0 0 0 0 0 0 0 0 0 0 0 0 0 0 0 0 0 0 0 0
42 39 34 28 24 22 21 20 18 16 12 6 2 0 0 0 0 0 0 0 0 0 0 0 0 0 0 0 0 0 0 0 0 0 0 0 0 0 0 0 0 0 0
35 33 29 26 22 21 22 22 18 14 9 3 1 0 0 0 0 0 0 0 0 0 0 0 0 0 0 0 0 0 0 0 0 0 0 0 0 0 0 0 0 0 0
25 25 24 22 20 19 19 19 16 12 7 2 0 0 0 0 0 0 0 0 0 0 0 0 0 0 0 0 0 0 0 0 0 0 0 0 0 0 0 0 0 0 0
19 19 19 19 18 16 14 14 12 9 6 3 1 0 0 0 0 0 0 0 0 0 0 0 0 0 0 0 0 0 0 0 0 0 0 0 0 0 0 0 0 0 0
18 17 18 19 19 16 12 10 9 8 6 3 1 0 0 0 0 0 0 0 0 0 0 0 0 0 0 0 0 0 0 0 0 0 0 0 0 0 0 0 0 0 0
18 18 18 20 22 20 12 7 6 7 5 2 1 0 0 0 0 0 0 0 0 0 0 0 0 0 0 0 0 0 0 0 0 0 0 0 0 1 1 1 0 0 0
17 18 18 20 22 19 12 7 5 6 5 2 0 0 0 0 0 0 0 0 0 0 0 0 0 0 0 0 0 0 0 0 0 0 0 0 0 1 1 1 0 0 0
15 16 16 16 16 14 10 8 6 6 5 2 0 1 1 1 1 0 0 0 0 0 0 0 0 0 0 0 0 0 0 0 0 0 0 0 0 0 0 0 0 0 0
14 14 14 13 12 10 9 9 9 7 5 2 0 1 2 3 2 1 0 0 0 0 0 0 0 0 0 0 0 0 0 0 0 0 0 0 0 0 0 0 0 0 0
12 12 12 12 11 10 10 11 11 9 6 3 1 1 2 3 3 2 1 0 0 0 0 0 0 0 0 0 0 0 0 0 0 0 0 0 0 0 0 0 0 0 0
9 9 11 11 10 9 10 11 11 9 7 4 2 1 1 2 2 2 1 0 0 0 0 0 0 0 0 0 0 0 0 0 0 0 0 0 0 0 0 0 0 0 0
7 8 9 11 9 8 10 11 10 8 7 5 2 1 1 1 1 1 0 0 0 0 0 0 0 0 0 0 0 0 0 0 0 0 0 0 0 0 0 0 0 0 0
Wind_Speed
8 10 16 17 17 17 17 18 18 18 18 17 17 17 17 16 15 14 14 13 12 12 12 12 13 13 13 13 13 14 14 14 14 14 15 15 15 14 15 15 15 12 16
13 12 17 17 17 17 17 17 17 17 17 17 17 16 16 15 15 14 13 13 13 13 12 12 13 13 13 13 14 13 13 13 13 14 14 14 14 14 14 14 14 10 15
15 12 15 17 18 17 17 17 17 17 16 16 16 15 15 15 14 14 13 13 13 13 13 13 13 13 13 13 13 13 13 12 13 13 13 9 10 13 13 14 14 14 14
15 12 13 18 18 18 17 17 16 16 16 15 15 15 14 14 13 13 13 13 13 13 13 13 13 13 13 12 12 12 12 12 13 13 7 7 8 12 13 13 13 13 13
13 11 14 20 19 18 17 16 16 16 15 15 14 14 13 13 13 12 12 12 12 12 12 12 12 12 12 11 11 11 11 11 12 10 6 6 6 11 13 13 13 13 13
11 10 13 20 19 18 17 16 16 15 15 14 14 13 13 13 12 12 12 12 12 12 12 12 12 11 11 10 9 9 10 11 10 7 6 6 6 11 13 13 12 12 12
11 9 12 19 19 18 17 16 16 15 14 14 13 13 12 12 12 12 11 11 11 11 11 11 11 10 9 8 8 8 9 11 7 6 6 6 6 10 12 12 12 12 11
12 10 11 19 19 18 17 16 16 15 14 13 13 12 12 11 11 10 11 10 10 10 10 10 9 9 8 7 6 8 9 10 8 7 6 5 7 9 11 11 11 11 11
10 9 8 10 14 17 17 16 16 15 14 13 13 12 11 11 10 10 9 9 9 9 9 9 8 8 7 6 6 7 9 10 6 5 6 4 7 10 11 11 11 10 10
8 8 8 8 8 8 10 15 16 15 14 13 13 12 11 11 10 9 7 8 8 8 8 7 7 7 6 5 5 6 8 8 5 5 4 5 8 10 11 10 10 10 10
10 7 7 7 7 7 7 12 13 14 13 12 10 12 10 4 4 5 6 7 7 7 7 6 5 5 5 4 5 6 6 3 5 3 3 6 9 10 10 10 10 10 9
13 10 7 7 7 7 7 6 4 5 6 5 4 5 4 3 3 4 5 7 6 6 5 5 4 4 4 2 3 4 2 4 4 3 3 8 9 10 10 10 10 9 9
13 12 10 8 7 7 4 4 3 3 3 4 4 4 4 3 2 2 1 2 2 3 2 2 2 2 2 1 1 1 2 3 2 2 3 8 8 10 10 10 10 10 9
12 12 11 10 8 6 4 4 4 3 3 3 4 5 4 2 2 2 1 1 1 1 2 2 1 2 2 2 2 2 2 2 2 1 3 7 8 9 10 10 10 10 10
10 10 10 10 9 7 5 4 5 4 4 4 3 4 4 3 3 2 2 2 2 2 2 2 1 2 2 2 1 1 2 2 2 2 1 6 8 8 9 10 10 10 10
10 9 8 9 8 7 5 5 4 4 3 3 3 4 5 4 3 3 3 2 2 2 2 2 2 2 2 1 1 1 1 1 2 2 1 2 5 7 8 9 10 10 10
10 8 8 8 8 7 7 6 5 4 4 3 3 4 5 4 4 4 3 3 2 2 3 2 3 2 2 1 1 1 0 0 1 2 2 1 2 4 6 8 9 9 10
9 8 9 10 9 7 6 5 4 4 4 4 3 3 4 5 5 4 3 3 3 3 3 3 2 2 2 1 1 1 1 1 1 1 1 1 1 2 3 6 7 8 9
10 10 10 9 9 7 6 5 4 4 4 4 3 3 4 5 5 4 3 3 4 3 2 3 2 2 1 1 1 1 1 1 1 1 1 1 1 2 2 3 5 5 7
7 8 9 8 7 7 6 4 3 3 3 3 3 4 5 4 6 5 4 4 4 3 3 2 3 2 2 1 1 2 2 2 1 1 1 1 1 1 2 2 1 2 5
6 7 8 8 7 7 5 5 5 4 3 3 3 4 5 5 6 5 4 4 4 3 3 3 3 3 2 1 2 2 3 3 2 2 1 1 1 1 0 1 1 1 1
8 8 7 7 7 7 6 4 3 4 3 3 3 4 5 6 6 6 6 5 4 4 4 3 3 2 2 1 2 2 2 3 3 3 2 2 2 1 1 0 1 1 1
8 9 8 8 9 8 7 4 4 3 3 2 3 3 4 6 6 6 7 5 5 4 4 3 3 4 2 1 1 3 3 2 1 2 3 3 2 2 1 1 0 0 1
9 9 9 9 9 8 8 8 8 6 5 5 4 4 4 5 6 6 6 6 5 4 4 4 3 3 4 2 1 2 1 2 3 1 2 2 3 2 2 1 1 1 0
7 8 9 9 9 8 8 9 8 6 4 3 4 5 4 3 5 6 6 6 5 4 4 4 4 3 2 3 2 2 2 2 2 2 1 2 2 2 2 2 1 1 1
6 6 7 8 8 8 8 8 8 8 7 7 6 6 4 3 3 5 6 5 5 4 5 4 4 4 3 3 2 2 3 2 2 2 2 0 1 2 2 1 1 1 1
Wind_Direction
158 157 153 145 137 131 126 123 122 121 121 122 123 124 125 126 125 124 122 120 117 114 111 109 109 110 109 108 108 109 111 112 114 115 114 113 112 111 111 110 107 107 109
148 155 155 148 141 135 130 128 126 125 124 125 125 126 126 126 125 125 124 122 120 117 114 113 112 111 111 111 111 112 114 115 116 117 117 116 116 114 113 113 112 115 113
145 152 154 150 144 139 135 132 130 129 127 127 127 128 128 128 127 127 125 124 121 118 116 115 115 114 114 114 115 115 116 116 118 118 113 112 117 118 118 117 117 116 116
147 149 153 152 147 143 139 137 135 133 131 130 130 130 130 130 130 129 126 125 122 119 118 118 118 118 117 117 117 119 119 119 118 114 107 116 121 123 121 119 119 119 118
146 147 157 153 150 147 144 141 139 137 135 134 134 133 133 132 131 130 127 125 123 122 122 121 120 118 118 118 120 123 125 124 121 111 107 108 114 128 125 123 122 121 120
144 148 160 155 153 151 148 146 144 142 141 139 137 137 137 135 133 132 130 127 125 124 122 121 120 120 119 120 123 129 133 130 118 114 113 116 122 132 130 128 126 124 123
146 152 160 157 156 154 153 151 149 148 146 144 143 142 141 139 138 138 134 130 128 128 124 122 121 120 120 118 121 129 136 134 125 124 124 125 133 135 134 131 131 129 128
151 152 158 160 159 158 157 156 154 153 151 150 149 148 147 146 143 141 138 135 133 131 129 126 123 118 114 109 110 121 133 136 136 137 133 134 141 139 138 136 135 134 132
151 152 156 160 161 162 161 161 159 158 157 156 154 153 152 150 147 146 142 140 137 135 132 130 127 120 112 108 109 122 134 136 131 138 147 143 150 147 145 143 140 138 138
152 156 156 154 153 156 162 165 165 163 162 161 160 159 158 157 155 154 149 149 145 142 139 135 129 122 113 105 109 126 134 128 133 141 140 159 161 158 153 152 149 146 145
162 158 154 153 151 150 157 171 168 166 167 166 166 165 160 146 144 150 161 161 154 151 147 140 129 119 107 93 101 119 121 127 139 142 151 172 171 168 163 160 158 156 155
172 168 161 161 157 154 166 162 154 158 159 156 153 151 133 131 148 156 176 174 168 163 155 144 133 106 88 72 82 101 114 143 148 156 177 184 181 177 173 171 170 169 167
173 172 169 166 161 159 156 148 143 137 140 145 149 141 136 134 140 141 137 166 157 152 113 102 81 75 87 97 97 114 136 148 156 170 186 194 190 189 184 181 181 179 177
173 178 171 167 164 161 154 153 149 148 149 154 157 152 145 146 152 150 144 131 110 104 106 83 80 86 89 98 116 127 138 146 165 172 198 205 202 200 194 190 191 190 189
176 178 174 169 169 166 157 160 163 159 159 161 158 163 162 162 166 162 151 136 132 122 122 115 104 97 94 89 96 127 138 149 171 186 215 216 211 209 203 198 199 201 199
180 180 177 176 172 166 165 164 162 157 154 159 165 175 171 166 165 159 153 144 140 139 136 132 126 109 93 94 86 117 135 147 174 197 214 241 228 216 212 205 207 210 209
181 178 179 179 173 172 172 170 162 157 155 164 171 172 168 164 162 157 151 147 146 136 126 107 95 82 88 87 70 48 52 109 182 217 218 236 257 236 225 217 215 217 218
172 174 182 187 177 177 174 164 154 159 159 165 163 161 164 160 155 149 144 146 138 126 119 113 97 85 70 70 63 28 31 12 302 262 243 242 248 248 238 234 226 223 224
174 175 181 182 173 171 161 158 155 152 159 157 154 157 161 156 153 145 144 140 134 122 119 123 93 98 87 58 46 47 27 23 333 308 287 264 244 237 240 255 248 240 236
172 172 174 171 168 158 148 145 142 143 151 147 154 157 155 154 150 139 134 133 132 124 114 103 103 80 78 68 55 47 24 16 30 30 340 326 281 251 240 249 264 266 256
165 166 170 169 165 155 151 159 160 166 160 155 159 152 153 153 150 142 137 132 136 135 136 130 113 96 64 56 79 39 16 23 44 34 16 14 358 327 254 217 221 230 261
173 171 170 171 171 172 167 161 161 151 149 148 147 146 155 156 154 152 143 145 144 131 129 134 130 117 76 55 118 103 46 11 7 22 21 32 18 11 16 348 193 204 229
180 178 178 180 182 176 162 144 128 105 98 121 145 157 165 163 158 150 151 148 149 144 149 152 146 139 134 71 68 136 142 186 315 350 12 26 24 32 14 14 61 175 218
189 182 181 179 179 173 165 165 164 167 170 175 163 159 156 161 157 153 154 153 152 149 152 160 149 142 139 140 94 60 100 144 142 77 347 2 19 32 13 8 19 14 9
184 179 179 176 178 173 172 173 172 170 161 140 138 145 148 152 156 158 157 153 153 157 160 153 144 145 143 149 151 139 105 76 87 134 143 339 357 4 8 354 351 0 7
174 175 174 175 178 174 171 170 173 167 157 152 160 161 156 153 155 161 157 157 160 162 165 160 154 151 147 142 146 151 153 149 153 140 147 183 317 324 338 341 345 325 306